DW0479 Weather Reports


time (UTC)temp
C
wind
direction
speed
KPH
gust
KPH
rain 1hr
cm
rain 24hr
cm
rain mn
cm
humidity
%
barometer
mb
20260502151749 28 235 9.7 24.1 0.00 0.00 0.00 69 1011.6
20260502150748 28 225 11.3 20.9 0.00 0.00 0.00 69 1011.6
20260502130740 25 216 6.4 16.1 0.00 0.00 0.00 81 1010.8
20260502123741 23 170 6.4 14.5 0.00 0.00 0.00 89 1010.7
20260502122731 23 177 8.0 16.1 0.00 0.00 0.00 93 1010.5
20260502121734 22 188 6.4 16.1 0.00 0.00 0.00 95 1010.5
20260502120730 22 189 3.2 9.7 0.00 0.00 0.00 96 1010.6
20260502115727 22 171 3.2 9.7 0.00 0.00 0.00 96 1010.6
20260502114724 21 196 1.6 4.8 0.00 0.00 0.00 96 1010.6
20260502113709 21 196 0.0 3.2 0.00 0.00 0.00 96 1010.5
20260502112700 21 196 1.6 6.4 0.00 0.00 0.00 96 1010.4
20260502111659 21 193 3.2 6.4 0.00 0.00 0.00 96 1010.4
20260502110658 20 193 1.6 4.8 0.00 0.00 0.00 95 1010.2
20260502105658 20 193 0.0 3.2 0.00 0.00 0.00 95 1010.2
20260502104644 20 193 0.0 3.2 0.00 0.00 0.00 95 1010.1
20260502104121 20 193 0.0 3.2 0.00 0.00 0.00 95 1009.8
20260502102643 20 193 3.2 8.0 0.00 0.00 0.00 95 1009.9
20260502101642 20 246 3.2 6.4 0.00 0.00 0.00 95 1010.0
20260502100642 20 252 1.6 4.8 0.00 0.00 0.00 95 1010.1
20260502090631 20 258 0.0 3.2 0.00 0.00 0.00 94 1010.6
20260502070617 21 291 1.6 4.8 0.00 0.00 0.00 92 1010.8
20260502070052 21 291 1.6 3.2 0.00 0.00 0.00 92 1010.8
20260502065102 21 292 0.0 3.2 0.00 0.00 0.00 91 1011.0
20260502063616 21 291 0.0 3.2 0.00 0.00 0.00 90 1011.0
20260502062616 21 292 1.6 4.8 0.00 0.00 0.00 90 1011.0
20260502062533 21 291 3.2 4.8 0.00 0.00 0.00 89 1011.2
20260502060615 21 292 1.6 4.8 0.00 0.00 0.00 88 1011.1
20260502055618 21 308 1.6 3.2 0.00 0.00 0.00 87 1011.2
20260502054616 21 308 1.6 3.2 0.00 0.00 0.00 86 1011.2
20260502054023 21 310 3.2 4.8 0.00 0.00 0.00 86 1011.5
20260502053650 21 308 3.2 4.8 0.00 0.00 0.00 86 1011.4
20260502051610 21 310 0.0 1.6 0.00 0.00 0.00 85 1011.6
20260502051103 21 310 0.0 1.6 0.00 0.00 0.00 85 1011.5
20260502045609 21 310 0.0 0.0 0.00 0.00 0.00 84 1011.5
20260502044611 21 310 0.0 0.0 0.00 0.00 0.00 83 1011.6
20260502043613 22 310 0.0 0.0 0.00 0.00 0.00 83 1011.6
20260502042607 22 310 0.0 0.0 0.00 0.00 0.00 82 1011.7
20260502041615 22 310 0.0 0.0 0.00 0.00 0.00 81 1011.7
20260502041047 22 310 0.0 0.0 0.00 0.00 0.00 80 1011.7
20260502035607 22 310 0.0 1.6 0.00 0.00 0.00 79 1011.8
20260502034608 23 310 0.0 1.6 0.00 0.00 0.00 78 1011.8
20260502033607 23 310 0.0 0.0 0.00 0.00 0.00 78 1011.7
20260502032606 23 310 0.0 0.0 0.00 0.00 0.00 77 1011.8
20260502031602 23 310 0.0 3.2 0.00 0.00 0.00 76 1011.7
20260502030603 24 310 0.0 3.2 0.00 0.00 0.00 74 1011.7
20260502030040 25 310 0.0 4.8 0.00 0.00 0.00 73 1011.7
20260502024553 25 310 3.2 6.4 0.00 0.00 0.00 71 1011.7
20260502023547 25 314 3.2 6.4 0.00 0.00 0.00 70 1011.7
20260502023455 25 308 3.2 8.0 0.00 0.00 0.00 69 1011.4
20260502021538 26 321 4.8 11.3 0.00 0.00 0.00 66 1011.5
20260502021009 26 289 3.2 9.7 0.00 0.00 0.00 63 1011.5
20260502015530 26 267 4.8 12.9 0.00 0.00 0.00 62 1011.3
20260502014522 26 279 4.8 11.3 0.00 0.00 0.00 61 1011.0
20260502013519 27 282 3.2 11.3 0.00 0.00 0.00 60 1010.8
20260502012520 27 296 4.8 11.3 0.00 0.00 0.00 59 1010.6
20260502011519 27 297 4.8 16.1 0.00 0.00 0.00 58 1010.7
20260502010520 28 279 8.0 16.1 0.00 0.00 0.00 56 1010.6
20260502005956 28 277 4.8 14.5 0.00 0.00 0.00 56 1010.5
20260502004517 28 285 4.8 16.1 0.00 0.00 0.00 55 1010.3
20260502003519 28 271 3.2 11.3 0.00 0.00 0.00 55 1010.2
20260502002956 28 270 3.2 8.0 0.00 0.00 0.00 54 1010.0
20260502001512 28 259 3.2 9.7 0.00 0.00 0.00 52 1009.8
20260502000511 29 263 4.8 6.4 0.00 0.00 0.00 51 1009.7
20260501235513 30 267 4.8 11.3 0.00 0.00 0.00 50 1009.6
20260501234504 30 241 4.8 12.9 0.00 0.00 0.00 50 1009.5
20260501233951 30 258 4.8 11.3 0.00 0.00 0.00 49 1009.4
20260501232456 31 236 6.4 14.5 0.00 0.00 0.00 49 1009.3
20260501231938 31 286 4.8 12.9 0.00 0.00 0.00 47 1009.3
20260501230930 31 242 8.0 14.5 0.00 0.00 0.00 47 1009.0
20260501225451 31 242 8.0 14.5 0.00 0.00 0.00 47 1009.0
20260501224451 32 266 6.4 16.1 0.00 0.00 0.00 46 1009.0
20260501223450 32 248 8.0 17.7 0.00 0.00 0.00 47 1008.9
20260501222449 32 267 8.0 17.7 0.00 0.00 0.00 46 1008.8
20260501221447 32 277 8.0 19.3 0.00 0.00 0.00 45 1008.7
20260501220925 32 260 8.0 12.9 0.00 0.00 0.00 45 1008.6
20260501215446 33 257 8.0 14.5 0.00 0.00 0.00 46 1008.7
20260501214445 32 250 8.0 16.1 0.00 0.00 0.00 44 1008.7
20260501213934 32 251 6.4 14.5 0.00 0.00 0.00 43 1008.8
20260501212441 33 260 6.4 17.7 0.00 0.00 0.00 43 1008.7
20260501211435 32 248 6.4 16.1 0.00 0.00 0.00 43 1008.9
20260501210427 32 254 6.4 16.1 0.00 0.00 0.00 44 1008.7
20260501205426 33 233 8.0 17.7 0.00 0.00 0.00 44 1008.8
20260501204912 33 227 6.4 14.5 0.00 0.00 0.00 44 1008.9
20260501203425 33 232 8.0 22.5 0.00 0.00 0.00 45 1009.0
20260501202425 33 210 6.4 17.7 0.00 0.00 0.00 45 1009.1
20260501201423 33 235 9.7 22.5 0.00 0.00 0.00 44 1009.2
20260501200424 33 313 6.4 17.7 0.00 0.00 0.00 44 1009.3
20260501195424 32 233 6.4 14.5 0.00 0.00 0.00 46 1009.6
20260501194425 32 221 8.0 17.7 0.00 0.00 0.00 46 1009.7
20260501193424 33 269 6.4 17.7 0.00 0.00 0.00 45 1010.1
20260501192421 32 225 9.7 22.5 0.00 0.00 0.00 45 1010.3
20260501191904 33 204 4.8 12.9 0.00 0.00 0.00 48 1010.5
20260501190422 33 310 6.4 20.9 0.00 0.00 0.00 47 1010.7
20260501185418 33 244 6.4 16.1 0.00 0.00 0.00 46 1010.6
20260501184420 32 240 9.7 22.5 0.00 0.00 0.00 46 1010.8
20260501183406 32 188 6.4 19.3 0.00 0.00 0.00 46 1010.8
20260501182406 32 317 8.0 19.3 0.00 0.00 0.00 46 1011.1
20260501181408 33 264 8.0 20.9 0.00 0.00 0.00 43 1011.1
20260501180842 33 266 6.4 14.5 0.00 0.00 0.00 46 1011.2
20260501175358 32 310 6.4 17.7 0.00 0.00 0.00 49 1011.5
20260501174359 33 298 4.8 14.5 0.00 0.00 0.00 49 1011.5
20260501173359 32 5 6.4 14.5 0.00 0.00 0.00 48 1011.6
20260501172354 31 82 3.2 6.4 0.00 0.00 0.00 53 1011.7
20260501171354 32 236 8.0 16.1 0.00 0.00 0.00 52 1011.8
20260501170351 33 315 4.8 12.9 0.00 0.00 0.00 53 1011.8
20260501165344 32 161 6.4 16.1 0.00 0.00 0.00 54 1011.8
20260501164343 31 259 6.4 16.1 0.00 0.00 0.00 57 1012.0
20260501163343 31 319 6.4 16.1 0.00 0.00 0.00 55 1012.2
20260501162340 32 320 6.4 16.1 0.00 0.00 0.00 54 1012.4
20260501161338 31 231 8.0 17.7 0.00 0.00 0.00 51 1012.5
20260501160337 31 298 9.7 20.9 0.00 0.00 0.00 54 1012.4